Weather in Kvashnino

Russia / Novosibirsk Oblast     55°00′35″N   77°50′09″E
temp.,
°C
wind,
m/s
gust,
m/s
humid.,
%
clouds,
%
prec.,
mm/h
press.,
hPa
HPBL,
m
5 march, fri
fri501:00−3ssw121992100 0.6 1006571
04:00−4ssw101693100 0.3 1004452
07:00−4ssw101695100 1.0 1003539
10:00−3wsw121792100 0.4 1005747
13:00−6wsw11158194 0.5 1010702
16:00−5sw11178274 0.0 1011666
19:00−5sw12179387 0.4 1012806
22:00−4sw111693100 1.0 1012744
6 march, sat
sat601:00−3sw101693100 1.6 1012637
04:00−4sw111795100 0.4 1011672
07:00−4sw121894100 1.8 1010739
10:00−4sw121794100 1.1 1009758
13:00−2sw121691100 1.8 1008948
16:00−1sw121692100 0.4 1007950
19:00−1sw121889100 0.6 1007615
22:00−3wsw7128991 0.1 1009258
7 march, sun
sun701:00−9w678978 0.1 101268
04:00−13w56930 0.0 101433
07:00−15wsw459331 0.0 101724
10:00−13wsw4588100 0.0 101772
13:00−10sw457998 0.0 1018245
16:00−8s4579100 0.0 1017248
19:00−7se6109599 0.3 1015286
22:00−2ssw101694100 1.0 1012609
8 march, mon
mon801:00−2ssw111792100 1.1 1010496
04:00−1ssw101691100 0.0 1008517
07:00−2ssw91592100 0.1 1008357
10:00−3ssw101688100 0.1 1006483
13:00−1ssw101487100 0.1 1005640
16:00−1sw91286100 0.0 1005778
19:00−2sw71096100 0.8 1006432
22:00−6nw71093100 0.9 1009388
9 march, tue
tue901:00−11wnw669692 1.0 101471
04:00−15w569764 0.0 101850
07:00−16wsw569253 0.0 102148
10:00−15sw68910 0.0 1023119
13:00−12ssw7108734 0.0 1024400
16:00−10ssw7118898 0.0 1023438
19:00−9ssw8138999 0.0 1021351
22:00−11ssw8129370 0.0 1019188